Regional Weather Roundup
Issued by NWS

Home | Current Version | Previous Version | Text Only | Print | Product List | Glossary Off
Versions: 1 2 3 4 5 6 7 8 9 10 11 12 13 14 15 16 17 18 19 20 21 22 23 24 25 26 27 28 29 30 31 32 33 34 35 36 37 38 39 40 41 42 43 44 45 46 47 48 49 50

000
ASUS43 KIND 170359
RWRIN

WEATHER ROUNDUP FOR INDIANA
NATIONAL WEATHER SERVICE INDIANAPOLIS IN
1100 PM EST MON JAN 16 2017

NOTE: "FAIR" INDICATES FEW OR NO CLOUDS BELOW 12,000 FEET WITH NO
SIGNIFICANT WEATHER AND/OR OBSTRUCTIONS TO VISIBILITY.

* - STATION DOES NOT REPORT WEATHER SUCH AS PRECIPITATION OR FOG.

+ - STATION NOT QUALITY CONTROLLED BY THE NATIONAL WEATHER SERVICE.
    USE DATA WITH CAUTION...ESPECIALLY DEWPOINT AND RELATIVE
    HUMIDITY OBSERVATIONS.

INZ001>003-010>013-019-020-170500-
NORTHWEST INDIANA

CITY           SKY/WX    TMP DP  RH WIND       PRES   REMARKS
GARY /AIRPORT/ CLOUDY    43  41  93 SE7       29.92  FOG
MONTICELLO +   RAIN      47  46  95 S12       29.94F

$$

LMZ046-743>745-170500-
SOUTHERN LAKE MICHIGAN

STATION/POSITION TIME  TEMP    WIND        PRES    WAVE
                       AIR SEA DIR/SP/G            HT
                 (UTC) (F)     (DEG/KT/KT) (MB)    (FT)
BURNS HARBOR     0340   42     140/  9/ 15 1013.9F
MICHIGAN CITY    0330   41     120/  7/  8   N/A

$$

INZ004-005-014>016-021>024-170500-
NORTH CENTRAL INDIANA

CITY           SKY/WX    TMP DP  RH WIND       PRES   REMARKS
GOSHEN         FOG       37  35  92 SE8       29.98F VSB 1/2
SOUTH BEND     LGT RAIN  36  36 100 SE12      29.97F VSB 3/4

$$

INZ006>009-017-018-025>027-170500-
NORTHEAST INDIANA

CITY           SKY/WX    TMP DP  RH WIND       PRES   REMARKS
ANGOLA *+      CLOUDY    34  34 100 SE12      30.01F VSB 1   WCI  25
FORT WAYNE     LGT RAIN  38  37  97 E5        30.01F VSB 1/8
KENDALLVILLE + LGT RAIN  35  35 100 E7        30.01S VSB 1/2 WCI  29

$$

INZ028-029-035-036-043>045-051>053-170500-
WEST CENTRAL INDIANA

CITY           SKY/WX    TMP DP  RH WIND       PRES   REMARKS
CRAWFORDSVL +  RAIN      49  49 100 SE14      29.94F
LAFAYETTE      LGT RAIN  50  50 100 SE5       29.94F
TERRE HAUTE    RAIN      54  52  93 S6        29.93F FOG

$$

INZ030>032-037>040-046>048-054>057-064-065-170500-
CENTRAL INDIANA

CITY           SKY/WX    TMP DP  RH WIND       PRES   REMARKS
INDIANAPOLIS   RAIN      50  50 100 SE10      29.97F FOG
-EAGLE CREEK   RAIN      52  50  93 SE9       29.98F FOG
KOKOMO +       RAIN      49  48  97 SE21      29.98F FOG
MT COMFORT *+  CLOUDY    48  48 100 S7        30.01F
SHELBYVILLE    RAIN      52  49  89 SE12      30.01S FOG

$$

INZ033-034-041-042-049-050-058-059-170500-
EAST CENTRAL INDIANA

CITY           SKY/WX    TMP DP  RH WIND       PRES   REMARKS
MUNCIE         LGT RAIN  51  49  92 SE9       30.00F FOG

$$

INZ060-061-067>069-081>083-085>088-170500-
SOUTHWEST INDIANA

CITY           SKY/WX    TMP DP  RH WIND       PRES   REMARKS
EVANSVILLE     CLOUDY    59  55  87 S10       29.97F
HUNTINGBURG *+ LGT RAIN  57  55  93 S14       29.99F

$$

INZ062-063-066-070>080-084-089>092-170500-
SOUTH CENTRAL AND SOUTHEAST INDIANA

CITY           SKY/WX    TMP DP  RH WIND       PRES   REMARKS
BLOOMINGTON    RAIN      52  50  93 S6        29.98F FOG
MADISON *+     CLOUDY    54  52  94 CALM      30.06R
SEYMOUR +      RAIN      54  54 100 S7        30.02S

$$





USA.gov is the U.S. government's official web portal to all federal, state and local government web resources and services.